Regional Weather Roundup
Issued by NWS

Current Version | Previous Version | Text Only | Print | Product List | Glossary On
Versions: 1 2 3 4 5 6 7 8 9 10 11 12 13 14 15 16 17 18 19 20 21 22 23 24 25 26 27 28 29 30 31 32 33 34 35 36 37 38 39 40 41 42 43 44 45 46 47 48 49 50
000
ASUS46 KPQR 300110
RWROR

OREGON REGIONAL WEATHER ROUNDUP
NATIONAL WEATHER SERVICE PORTLAND OR
600 PM PDT SUN MAR 29 2015

NOTE: "FAIR" INDICATES FEW OR NO CLOUDS BELOW 12,000 FEET WITH
NO SIGNIFICANT WEATHER AND/OR OBSTRUCTIONS TO VISIBILITY.

ORZ001>013-300200-
NORTHWEST OREGON


CITY           SKY/WX    TMP DP  RH WIND       PRES   REMARKS
ASTORIA        CLOUDY    55  50  83 SW10      30.20F
NEWPORT        CLOUDY    54  50  87 NW6       30.25F
PORTLAND       MOSUNNY   67  42  40 NW3       30.17F
VANCOUVER WA   SUNNY     66  41  40 SW5       30.17F
SCAPPOOSE      SUNNY     66  44  45 CALM      30.17F
HILLSBORO      SUNNY     66  44  45 N5        30.17F
AURORA         MOSUNNY   65  42  43 VRB3      30.18F
MCMINNVILLE    MOSUNNY   65  46  50 S5        30.18F
SALEM          MOSUNNY   68  38  33 N5        30.16F
CORVALLIS      MOSUNNY   68  46  45 E6        30.19F
EUGENE         PTSUNNY   64  48  56 NE7       30.18F
$$

ORZ021-028-300200-
SOUTHWEST OREGON


CITY           SKY/WX    TMP DP  RH WIND       PRES   REMARKS
NORTH BEND     MOSUNNY   57  54  88 N8        30.23F
BROOKINGS      MOSUNNY   62  47  58 NW14      30.15F
ROSEBURG       SUNNY     71  38  29 N8        30.15F
SEXTON SUMMIT  SUNNY     57  39  51 VRB5      30.19F
MEDFORD        MOSUNNY   73  37  27 SE3       30.12F
$$

ORZ014>016-041-300200-
COLUMBIA GORGE


CITY           SKY/WX    TMP DP  RH WIND       PRES   REMARKS
TROUTDALE      MOSUNNY   67  37  33 W3        30.16F
THE DALLES     PTSUNNY   69  36  29 NW18G24   30.12F
$$

ORZ029>031-041-044-049-050-061>064-502-503-505>511-300200-
EASTERN OREGON


CITY           SKY/WX    TMP DP  RH WIND       PRES   REMARKS
REDMOND        PTSUNNY   66  34  30 NW15      30.13S
BEND           PTSUNNY   64  32  29 N10G16    30.14R
PRINEVILLE     PTSUNNY   66  34  30 NW14      30.14S
KLAMATH FALLS  MOSUNNY   66  27  23 CALM      30.16S
LAKEVIEW       SUNNY     66  27  22 SE7       30.17F
HERMISTON      CLOUDY    70  35  27 SW10      30.11F
PENDLETON      PTSUNNY   64  42  44 NW6       30.14S
JOHN DAY       SUNNY     65  32  29 CALM      30.15F
MEACHAM        MOSUNNY   57  37  47 VRB3      30.18R
LA GRANDE      MOSUNNY   66  34  30 S3        30.12F
BAKER CITY     MOSUNNY   63  33  32 E9        30.16S
BURNS          SUNNY     65  25  22 CALM      30.17F
ROME             N/A     69  12  11 SW6       30.14F
ONTARIO        SUNNY     66  29  24 E5        30.18F
$$



USA.gov is the U.S. government's official web portal to all federal, state and local government web resources and services.